UAL268 KEWR-SKBO

Flight info

Callsign UAL268
Flight time N/A
Altitude 32000
Route ELVAE DCT NECCK DCT WHITE Q409 CRPLR DCT BGBRD Q101 SKARP Y313 IDOLS DCT RROOO Y323 CARPX Y307 HANKX/N0466F340 Y307 ENAMO/N0470F330 UR625 NEFTU UP525 RONLU/N0470F350 UP525 BAQ UL305 ATANA ATANA4W
Aircraft B739/M-SDE2E3FGHIRWXY/LB1

Departure

Time 2026-04-24 21:00
Airport Newark Liberty International Airport (KEWR)

Arrival

Time N/A
Airport El Dorado International Airport (SKBO)
Time Latitude Longitude Altitude Speed Heading
2026-04-24 20:19 40.69608 -74.17357 20 ft 0 kts 143°
2026-04-24 20:45 40.69624 -74.17376 18 ft 4 kts 118°
2026-04-24 20:46 40.69628 -74.17406 20 ft 4 kts 62°
2026-04-24 20:46 40.69617 -74.17424 18 ft 4 kts 43°
2026-04-24 20:46 40.69611 -74.17432 21 ft 0 kts 41°
2026-04-24 20:50 40.69616 -74.17427 18 ft 2 kts 41°
2026-04-24 20:50 40.69634 -74.17406 21 ft 4 kts 41°
2026-04-24 20:50 40.69661 -74.17374 19 ft 6 kts 41°
2026-04-24 20:50 40.69692 -74.17337 20 ft 6 kts 43°
2026-04-24 20:51 40.69714 -74.17283 20 ft 8 kts 67°
2026-04-24 20:51 40.69729 -74.17212 20 ft 9 kts 101°
2026-04-24 20:51 40.69683 -74.17159 20 ft 9 kts 150°
2026-04-24 20:51 40.69628 -74.17122 20 ft 9 kts 158°
2026-04-24 20:52 40.69570 -74.17094 19 ft 10 kts 164°
2026-04-24 20:52 40.69498 -74.17077 18 ft 11 kts 172°
2026-04-24 20:52 40.69414 -74.17071 18 ft 13 kts 183°
2026-04-24 20:52 40.69322 -74.17096 17 ft 14 kts 199°
2026-04-24 20:53 40.69236 -74.17147 18 ft 13 kts 206°
2026-04-24 20:53 40.69147 -74.17203 17 ft 15 kts 205°
2026-04-24 20:53 40.69049 -74.17265 17 ft 16 kts 205°
2026-04-24 20:53 40.68954 -74.17326 20 ft 15 kts 205°
2026-04-24 20:54 40.68862 -74.17384 20 ft 14 kts 206°
2026-04-24 20:54 40.68773 -74.17439 22 ft 14 kts 205°
2026-04-24 20:54 40.68689 -74.17493 25 ft 13 kts 206°
2026-04-24 20:54 40.68603 -74.17548 24 ft 14 kts 206°
2026-04-24 20:55 40.68513 -74.17606 26 ft 14 kts 205°
2026-04-24 20:55 40.68422 -74.17663 27 ft 15 kts 206°
2026-04-24 20:55 40.68317 -74.17729 20 ft 18 kts 205°
2026-04-24 20:55 40.68203 -74.17803 21 ft 18 kts 206°
2026-04-24 20:56 40.68086 -74.17877 19 ft 19 kts 205°
2026-04-24 20:56 40.67968 -74.17951 22 ft 18 kts 205°
2026-04-24 20:56 40.67855 -74.18022 24 ft 18 kts 206°
2026-04-24 20:56 40.67749 -74.18090 26 ft 15 kts 206°
2026-04-24 20:57 40.67663 -74.18124 24 ft 11 kts 163°
2026-04-24 20:57 40.67613 -74.18065 22 ft 6 kts 130°
2026-04-24 20:57 40.67598 -74.18043 21 ft 3 kts 130°
2026-04-24 20:57 40.67586 -74.18023 21 ft 3 kts 129°
2026-04-24 20:58 40.67568 -74.17992 23 ft 5 kts 122°
2026-04-24 20:58 40.67556 -74.17951 22 ft 5 kts 109°
2026-04-24 20:58 40.67569 -74.17919 22 ft 3 kts 23°
2026-04-24 20:58 40.67595 -74.17904 21 ft 7 kts 25°
2026-04-24 20:59 40.67752 -74.17805 20 ft 57 kts 26°
2026-04-24 20:59 40.68314 -74.17451 24 ft 120 kts 25°
2026-04-24 20:59 40.69231 -74.16870 20 ft 170 kts 26°
2026-04-24 20:59 40.70403 -74.16140 240 ft 193 kts 28°
2026-04-24 21:00 40.71599 -74.15300 886 ft 196 kts 41°
2026-04-24 21:00 40.72511 -74.13986 1584 ft 195 kts 51°
2026-04-24 21:00 40.73394 -74.12572 2019 ft 208 kts 49°
2026-04-24 21:00 40.74372 -74.11075 2244 ft 224 kts 48°
2026-04-24 21:01 40.75515 -74.09594 2534 ft 237 kts 30°
2026-04-24 21:01 40.77104 -74.09001 2799 ft 249 kts 355°
2026-04-24 21:01 40.78738 -74.09822 3110 ft 259 kts 317°
2026-04-24 21:01 40.79660 -74.11798 3841 ft 256 kts 285°
2026-04-24 21:02 40.79973 -74.14062 4634 ft 254 kts 272°
2026-04-24 21:02 40.79590 -74.16313 5315 ft 258 kts 239°
2026-04-24 21:02 40.78274 -74.17928 5977 ft 265 kts 212°
2026-04-24 21:02 40.76562 -74.18891 6620 ft 272 kts 202°
2026-04-24 21:03 40.74725 -74.19635 7110 ft 280 kts 201°
2026-04-24 21:03 40.72831 -74.20351 7641 ft 286 kts 202°
2026-04-24 21:03 40.70898 -74.21088 8151 ft 292 kts 203°
2026-04-24 21:03 40.68932 -74.21852 8674 ft 298 kts 204°
2026-04-24 21:04 40.66931 -74.22643 9210 ft 302 kts 205°
2026-04-24 21:04 40.64902 -74.23453 9756 ft 307 kts 206°
2026-04-24 21:04 40.62842 -74.24281 10248 ft 313 kts 206°
2026-04-24 21:04 40.60697 -74.25152 10397 ft 332 kts 205°
2026-04-24 21:05 40.58429 -74.26074 10551 ft 350 kts 205°
2026-04-24 21:05 40.56003 -74.26909 10674 ft 375 kts 194°
2026-04-24 21:05 40.53303 -74.26925 10799 ft 403 kts 175°
2026-04-24 21:05 40.50539 -74.25910 10933 ft 424 kts 162°
2026-04-24 21:06 40.47772 -74.24448 11271 ft 432 kts 160°
2026-04-24 21:06 40.44998 -74.22938 11948 ft 428 kts 161°
2026-04-24 21:06 40.42228 -74.21474 12476 ft 431 kts 161°
2026-04-24 21:06 40.39406 -74.20047 12884 ft 437 kts 162°
2026-04-24 21:07 40.36593 -74.18656 13362 ft 440 kts 162°
2026-04-24 21:07 40.33693 -74.17377 13851 ft 439 kts 170°
2026-04-24 21:07 40.30689 -74.16821 14273 ft 435 kts 183°
2026-04-24 21:07 40.27679 -74.16983 14718 ft 431 kts 193°
2026-04-24 21:08 40.24769 -74.17785 15166 ft 427 kts 199°
2026-04-24 21:08 40.21882 -74.18707 15662 ft 428 kts 199°
2026-04-24 21:08 40.18980 -74.19623 16116 ft 430 kts 199°
2026-04-24 21:08 40.16052 -74.20525 16498 ft 434 kts 199°
2026-04-24 21:09 40.13093 -74.21418 16884 ft 437 kts 198°
2026-04-24 21:09 40.10119 -74.22304 17287 ft 440 kts 198°
2026-04-24 21:09 40.07126 -74.23192 17705 ft 442 kts 198°
2026-04-24 21:09 40.04120 -74.24088 18075 ft 445 kts 199°
2026-04-24 21:10 40.01186 -74.25310 18399 ft 441 kts 209°
2026-04-24 21:10 39.98473 -74.27120 18737 ft 436 kts 218°
2026-04-24 21:10 39.96024 -74.29413 19106 ft 433 kts 223°
2026-04-24 21:10 39.93620 -74.31781 19457 ft 435 kts 223°
2026-04-24 21:11 39.91189 -74.34151 19795 ft 438 kts 223°
2026-04-24 21:11 39.88766 -74.36484 20129 ft 440 kts 222°
2026-04-24 21:11 39.86289 -74.38845 20474 ft 442 kts 222°
2026-04-24 21:11 39.83799 -74.41210 20779 ft 444 kts 221°
2026-04-24 21:12 39.81332 -74.43624 21106 ft 443 kts 225°
2026-04-24 21:12 39.79098 -74.46367 21415 ft 441 kts 231°
2026-04-24 21:12 39.76963 -74.49241 21731 ft 442 kts 232°
2026-04-24 21:12 39.74839 -74.52144 22020 ft 444 kts 232°
2026-04-24 21:13 39.72702 -74.55056 22315 ft 446 kts 232°
2026-04-24 21:13 39.70544 -74.57967 22619 ft 448 kts 231°
2026-04-24 21:13 39.68370 -74.60875 22911 ft 450 kts 231°
2026-04-24 21:13 39.66175 -74.63790 23200 ft 452 kts 231°
2026-04-24 21:14 39.63966 -74.66711 23474 ft 454 kts 231°
2026-04-24 21:14 39.61748 -74.69638 23713 ft 456 kts 231°
2026-04-24 21:14 39.59517 -74.72576 23940 ft 458 kts 231°
2026-04-24 21:14 39.57275 -74.75528 24167 ft 460 kts 231°
2026-04-24 21:15 39.55024 -74.78489 24382 ft 462 kts 231°
2026-04-24 21:15 39.52762 -74.81462 24596 ft 464 kts 231°
2026-04-24 21:15 39.50491 -74.84444 24822 ft 466 kts 231°
2026-04-24 21:15 39.48210 -74.87438 25034 ft 468 kts 231°
2026-04-24 21:16 39.45919 -74.90441 25259 ft 469 kts 231°
2026-04-24 21:16 39.43624 -74.93447 25484 ft 471 kts 231°
2026-04-24 21:16 39.41317 -74.96465 25686 ft 473 kts 231°
2026-04-24 21:16 39.38998 -74.99495 25890 ft 475 kts 231°
2026-04-24 21:17 39.36675 -75.02529 26140 ft 475 kts 231°
2026-04-24 21:17 39.34350 -75.05561 26475 ft 474 kts 231°
2026-04-24 21:17 39.32035 -75.08578 26742 ft 474 kts 231°
2026-04-24 21:17 39.30492 -75.10587 26863 ft 476 kts 231°
2026-04-24 21:18 39.27339 -75.14622 27162 ft 478 kts 230°
2026-04-24 21:18 39.24953 -75.17602 27512 ft 476 kts 230°
2026-04-24 21:18 39.22571 -75.20557 27848 ft 475 kts 230°
2026-04-24 21:18 39.20188 -75.23516 28113 ft 475 kts 230°
2026-04-24 21:19 39.17810 -75.26477 28363 ft 476 kts 230°
2026-04-24 21:19 39.15429 -75.29446 28674 ft 476 kts 230°
2026-04-24 21:19 39.13049 -75.32415 29002 ft 475 kts 230°
2026-04-24 21:19 39.10680 -75.35368 29310 ft 475 kts 230°
2026-04-24 21:20 39.05844 -75.41083 29949 ft 480 kts 220°
2026-04-24 21:20 39.02908 -75.43210 30166 ft 490 kts 207°
2026-04-24 21:20 38.99635 -75.44552 30355 ft 499 kts 195°